contact: severine.martini@mio.osupytheas.fr, dominique.lefevre@mio.osupytheas.fr
Project:EMSO Ligure-ouest http://www.emso-fr.org/EMSO-France
Sensor Microcat Sea-Bird SBE37 SMP,  Serial 57510 
DOI : "https://doi.org/10.17882/97948" 
Title:EMSO Ligure Ouest : Data Bathybot capteur Microcat - deploiement 2023-04-28
Datetime,Profondeur,Latitude,Longitude,Temperature,Conductivite,Pression,Salinite
time,m,degree_north,degree_east,degree_C,S/m,db,PSU 
2023-09-23T00:00:49,2420,42.8014,5.9826,13.2968,4.59878,2453.680,38.4852
2023-09-23T00:03:49,2420,42.8014,5.9826,13.2971,4.59875,2453.702,38.4845
2023-09-23T00:06:49,2420,42.8014,5.9826,13.2973,4.59881,2453.717,38.4849
2023-09-23T00:09:49,2420,42.8014,5.9826,13.2967,4.59877,2453.695,38.4852
2023-09-23T00:12:49,2420,42.8014,5.9826,13.2969,4.59877,2453.695,38.4849
2023-09-23T00:15:49,2420,42.8014,5.9826,13.2968,4.59882,2453.695,38.4855
2023-09-23T00:18:49,2420,42.8014,5.9826,13.2968,4.59877,2453.680,38.4851
2023-09-23T00:21:49,2420,42.8014,5.9826,13.2970,4.59879,2453.702,38.4850
2023-09-23T00:24:49,2420,42.8014,5.9826,13.2968,4.59873,2453.695,38.4847
2023-09-23T00:27:49,2420,42.8014,5.9826,13.2966,4.59876,2453.717,38.4851
2023-09-23T00:30:49,2420,42.8014,5.9826,13.2968,4.59879,2453.695,38.4852
2023-09-23T00:33:49,2420,42.8014,5.9826,13.2965,4.59877,2453.695,38.4854
2023-09-23T00:36:49,2420,42.8014,5.9826,13.2968,4.59875,2453.695,38.4849
2023-09-23T00:39:49,2420,42.8014,5.9826,13.2968,4.59875,2453.680,38.4849
2023-09-23T00:42:49,2420,42.8014,5.9826,13.2968,4.59875,2453.732,38.4848
2023-09-23T00:45:49,2420,42.8014,5.9826,13.2968,4.59874,2453.717,38.4847
2023-09-23T00:48:49,2420,42.8014,5.9826,13.2968,4.59875,2453.695,38.4848
2023-09-23T00:51:49,2420,42.8014,5.9826,13.2970,4.59877,2453.695,38.4849
2023-09-23T00:54:49,2420,42.8014,5.9826,13.2971,4.59878,2453.695,38.4848
2023-09-23T00:57:49,2420,42.8014,5.9826,13.2967,4.59877,2453.695,38.4851
2023-09-23T01:00:50,2420,42.8014,5.9826,13.2968,4.59879,2453.702,38.4852
2023-09-23T01:03:49,2420,42.8014,5.9826,13.2973,4.59886,2453.695,38.4854
2023-09-23T01:06:49,2420,42.8014,5.9826,13.2971,4.59885,2453.717,38.4854
2023-09-23T01:09:49,2420,42.8014,5.9826,13.2970,4.59877,2453.695,38.4848
2023-09-23T01:12:49,2420,42.8014,5.9826,13.2970,4.59881,2453.717,38.4852
2023-09-23T01:15:49,2420,42.8014,5.9826,13.2970,4.59880,2453.695,38.4851
2023-09-23T01:18:49,2420,42.8014,5.9826,13.2971,4.59883,2453.672,38.4852
2023-09-23T01:21:49,2420,42.8014,5.9826,13.2971,4.59877,2453.709,38.4847
2023-09-23T01:24:49,2420,42.8014,5.9826,13.2969,4.59880,2453.695,38.4852
2023-09-23T01:27:49,2420,42.8014,5.9826,13.2973,4.59877,2453.695,38.4845
2023-09-23T01:30:49,2420,42.8014,5.9826,13.2968,4.59889,2453.672,38.4861
2023-09-23T01:33:49,2420,42.8014,5.9826,13.2968,4.59881,2453.672,38.4854
2023-09-23T01:36:49,2420,42.8014,5.9826,13.2968,4.59883,2453.657,38.4856
2023-09-23T01:39:49,2420,42.8014,5.9826,13.2973,4.59886,2453.687,38.4854
2023-09-23T01:42:49,2420,42.8014,5.9826,13.2970,4.59880,2453.680,38.4851
2023-09-23T01:45:49,2420,42.8014,5.9826,13.2973,4.59887,2453.695,38.4855
2023-09-23T01:48:49,2420,42.8014,5.9826,13.2970,4.59885,2453.695,38.4856
2023-09-23T01:51:49,2420,42.8014,5.9826,13.2974,4.59879,2453.672,38.4846
2023-09-23T01:54:49,2420,42.8014,5.9826,13.2969,4.59886,2453.672,38.4857
2023-09-23T01:57:49,2420,42.8014,5.9826,13.2974,4.59881,2453.672,38.4848
2023-09-23T02:00:49,2420,42.8014,5.9826,13.2973,4.59883,2453.680,38.4851
2023-09-23T02:03:49,2420,42.8014,5.9826,13.2970,4.59886,2453.657,38.4857
2023-09-23T02:06:49,2420,42.8014,5.9826,13.2971,4.59885,2453.687,38.4855
2023-09-23T02:09:49,2420,42.8014,5.9826,13.2970,4.59882,2453.695,38.4853
2023-09-23T02:12:49,2420,42.8014,5.9826,13.2970,4.59883,2453.649,38.4855
2023-09-23T02:15:49,2420,42.8014,5.9826,13.2970,4.59880,2453.695,38.4851
2023-09-23T02:18:49,2420,42.8014,5.9826,13.2972,4.59877,2453.649,38.4846
2023-09-23T02:21:49,2420,42.8014,5.9826,13.2971,4.59877,2453.695,38.4848
2023-09-23T02:24:49,2420,42.8014,5.9826,13.2970,4.59878,2453.687,38.4850
2023-09-23T02:27:49,2420,42.8014,5.9826,13.2968,4.59880,2453.687,38.4852
2023-09-23T02:30:49,2420,42.8014,5.9826,13.2970,4.59884,2453.695,38.4855
2023-09-23T02:33:49,2420,42.8014,5.9826,13.2974,4.59880,2453.672,38.4847
2023-09-23T02:36:49,2420,42.8014,5.9826,13.2970,4.59879,2453.687,38.4850
2023-09-23T02:39:49,2420,42.8014,5.9826,13.2975,4.59876,2453.695,38.4843
2023-09-23T02:42:49,2420,42.8014,5.9826,13.2970,4.59877,2453.672,38.4848
2023-09-23T02:45:49,2420,42.8014,5.9826,13.2973,4.59874,2453.672,38.4842
2023-09-23T02:48:49,2420,42.8014,5.9826,13.2967,4.59878,2453.649,38.4853
2023-09-23T02:51:49,2420,42.8014,5.9826,13.2976,4.59875,2453.649,38.4840
2023-09-23T02:54:49,2420,42.8014,5.9826,13.2972,4.59872,2453.635,38.4842
2023-09-23T02:57:49,2420,42.8014,5.9826,13.2972,4.59875,2453.672,38.4845
2023-09-23T03:00:49,2420,42.8014,5.9826,13.2968,4.59873,2453.649,38.4846
2023-09-23T03:03:49,2420,42.8014,5.9826,13.2969,4.59872,2453.672,38.4844
2023-09-23T03:06:49,2420,42.8014,5.9826,13.2968,4.59877,2453.672,38.4850
2023-09-23T03:09:49,2420,42.8014,5.9826,13.2970,4.59874,2453.649,38.4845
2023-09-23T03:12:49,2420,42.8014,5.9826,13.2970,4.59873,2453.695,38.4844
2023-09-23T03:15:49,2420,42.8014,5.9826,13.2969,4.59872,2453.649,38.4845
2023-09-23T03:18:49,2420,42.8014,5.9826,13.2964,4.59881,2453.657,38.4858
2023-09-23T03:21:49,2420,42.8014,5.9826,13.2964,4.59874,2453.649,38.4851
2023-09-23T03:24:49,2420,42.8014,5.9826,13.2970,4.59879,2453.672,38.4850
2023-09-23T03:27:49,2420,42.8014,5.9826,13.2970,4.59872,2453.649,38.4844
2023-09-23T03:30:49,2420,42.8014,5.9826,13.2970,4.59873,2453.672,38.4844
2023-09-23T03:33:49,2420,42.8014,5.9826,13.2969,4.59875,2453.672,38.4847
2023-09-23T03:36:49,2420,42.8014,5.9826,13.2970,4.59872,2453.649,38.4844
2023-09-23T03:39:49,2420,42.8014,5.9826,13.2968,4.59875,2453.649,38.4848
2023-09-23T03:42:49,2420,42.8014,5.9826,13.2970,4.59877,2453.649,38.4848
2023-09-23T03:45:49,2420,42.8014,5.9826,13.2975,4.59872,2453.672,38.4839
2023-09-23T03:48:49,2420,42.8014,5.9826,13.2970,4.59875,2453.649,38.4847
2023-09-23T03:51:49,2420,42.8014,5.9826,13.2968,4.59875,2453.695,38.4849
2023-09-23T03:54:49,2420,42.8014,5.9826,13.2967,4.59873,2453.649,38.4848
2023-09-23T03:57:49,2420,42.8014,5.9826,13.2970,4.59879,2453.664,38.4850
2023-09-23T04:00:49,2420,42.8014,5.9826,13.2971,4.59877,2453.627,38.4848
2023-09-23T04:03:49,2420,42.8014,5.9826,13.2970,4.59877,2453.649,38.4849
2023-09-23T04:06:49,2420,42.8014,5.9826,13.2968,4.59877,2453.627,38.4851
2023-09-23T04:09:49,2420,42.8014,5.9826,13.2970,4.59875,2453.649,38.4846
2023-09-23T04:12:49,2420,42.8014,5.9826,13.2968,4.59875,2453.649,38.4848
2023-09-23T04:15:49,2420,42.8014,5.9826,13.2973,4.59876,2453.657,38.4845
2023-09-23T04:18:49,2420,42.8014,5.9826,13.2970,4.59872,2453.672,38.4844
2023-09-23T04:21:49,2420,42.8014,5.9826,13.2968,4.59882,2453.649,38.4855
2023-09-23T04:24:49,2420,42.8014,5.9826,13.2972,4.59875,2453.635,38.4845
2023-09-23T04:27:49,2420,42.8014,5.9826,13.2970,4.59876,2453.612,38.4847
2023-09-23T04:30:49,2420,42.8014,5.9826,13.2969,4.59876,2453.649,38.4848
2023-09-23T04:33:49,2420,42.8014,5.9826,13.2969,4.59875,2453.627,38.4848
2023-09-23T04:36:49,2420,42.8014,5.9826,13.2968,4.59877,2453.649,38.4851
2023-09-23T04:39:49,2420,42.8014,5.9826,13.2966,4.59875,2453.649,38.4851
2023-09-23T04:42:49,2420,42.8014,5.9826,13.2973,4.59878,2453.627,38.4847
2023-09-23T04:45:49,2420,42.8014,5.9826,13.2970,4.59876,2453.627,38.4847
2023-09-23T04:48:49,2420,42.8014,5.9826,13.2970,4.59878,2453.635,38.4850
2023-09-23T04:51:49,2420,42.8014,5.9826,13.2969,4.59877,2453.649,38.4850
2023-09-23T04:54:49,2420,42.8014,5.9826,13.2971,4.59875,2453.649,38.4845
2023-09-23T04:57:49,2420,42.8014,5.9826,13.2973,4.59876,2453.604,38.4845
2023-09-23T05:00:49,2420,42.8014,5.9826,13.2968,4.59878,2453.649,38.4851
2023-09-23T05:03:49,2420,42.8014,5.9826,13.2967,4.59880,2453.649,38.4855
2023-09-23T05:06:49,2420,42.8014,5.9826,13.2968,4.59880,2453.627,38.4853
2023-09-23T05:09:49,2420,42.8014,5.9826,13.2968,4.59877,2453.627,38.4850
2023-09-23T05:12:49,2420,42.8014,5.9826,13.2970,4.59879,2453.635,38.4851
2023-09-23T05:15:49,2420,42.8014,5.9826,13.2968,4.59876,2453.649,38.4849
2023-09-23T05:18:49,2420,42.8014,5.9826,13.2967,4.59883,2453.627,38.4857
2023-09-23T05:21:49,2420,42.8014,5.9826,13.2969,4.59878,2453.627,38.4850
2023-09-23T05:24:49,2420,42.8014,5.9826,13.2969,4.59882,2453.627,38.4854
2023-09-23T05:27:50,2420,42.8014,5.9826,13.2968,4.59880,2453.604,38.4853
2023-09-23T05:30:49,2420,42.8014,5.9826,13.2970,4.59886,2453.649,38.4857
2023-09-23T05:33:49,2420,42.8014,5.9826,13.2968,4.59886,2453.627,38.4859
2023-09-23T05:36:49,2420,42.8014,5.9826,13.2970,4.59883,2453.627,38.4854
2023-09-23T05:39:49,2420,42.8014,5.9826,13.2969,4.59887,2453.635,38.4859
2023-09-23T05:42:49,2420,42.8014,5.9826,13.2968,4.59887,2453.649,38.4860
2023-09-23T05:45:49,2420,42.8014,5.9826,13.2967,4.59888,2453.627,38.4862
2023-09-23T05:48:49,2420,42.8014,5.9826,13.2966,4.59883,2453.627,38.4858
2023-09-23T05:51:49,2420,42.8014,5.9826,13.2968,4.59889,2453.649,38.4862
2023-09-23T05:54:49,2420,42.8014,5.9826,13.2969,4.59888,2453.627,38.4860
2023-09-23T05:57:49,2420,42.8014,5.9826,13.2967,4.59889,2453.582,38.4863
2023-09-23T06:00:49,2420,42.8014,5.9826,13.2972,4.59887,2453.612,38.4856
2023-09-23T06:03:49,2420,42.8014,5.9826,13.2969,4.59883,2453.590,38.4855
2023-09-23T06:06:49,2420,42.8014,5.9826,13.2967,4.59888,2453.590,38.4862
2023-09-23T06:09:49,2420,42.8014,5.9826,13.2969,4.59885,2453.627,38.4857
2023-09-23T06:12:49,2420,42.8014,5.9826,13.2969,4.59894,2453.604,38.4865
2023-09-23T06:15:49,2420,42.8014,5.9826,13.2969,4.59899,2453.649,38.4870
2023-09-23T06:18:49,2420,42.8014,5.9826,13.2971,4.59902,2453.604,38.4871
2023-09-23T06:21:49,2420,42.8014,5.9826,13.2968,4.59900,2453.627,38.4872
2023-09-23T06:24:49,2420,42.8014,5.9826,13.2970,4.59897,2453.604,38.4867
2023-09-23T06:27:49,2420,42.8014,5.9826,13.2971,4.59896,2453.635,38.4865
2023-09-23T06:30:49,2420,42.8014,5.9826,13.2968,4.59908,2453.604,38.4879
2023-09-23T06:33:49,2420,42.8014,5.9826,13.2971,4.59907,2453.619,38.4876
2023-09-23T06:36:49,2420,42.8014,5.9826,13.2972,4.59905,2453.627,38.4873
2023-09-23T06:39:49,2420,42.8014,5.9826,13.2972,4.59906,2453.604,38.4874
2023-09-23T06:42:49,2420,42.8014,5.9826,13.2970,4.59915,2453.582,38.4884
2023-09-23T06:45:49,2420,42.8014,5.9826,13.2971,4.59911,2453.627,38.4880
2023-09-23T06:48:49,2420,42.8014,5.9826,13.2972,4.59937,2453.604,38.4904
2023-09-23T06:51:49,2420,42.8014,5.9826,13.2970,4.59923,2453.582,38.4893
2023-09-23T06:54:49,2420,42.8014,5.9826,13.3024,4.59938,2453.604,38.4853
2023-09-23T06:57:49,2420,42.8014,5.9826,13.2969,4.59968,2453.656,38.4936
2023-09-23T07:00:50,2420,42.8014,5.9826,13.2970,4.59918,2453.604,38.4887
2023-09-23T07:03:49,2420,42.8014,5.9826,13.2970,4.59950,2453.627,38.4918
2023-09-23T07:06:49,2420,42.8014,5.9826,13.2995,4.60035,2453.627,38.4973
2023-09-23T07:09:49,2420,42.8014,5.9826,13.2971,4.59934,2453.590,38.4901
2023-09-23T07:12:49,2420,42.8014,5.9826,13.2971,4.59988,2453.627,38.4952
2023-09-23T07:15:49,2420,42.8014,5.9826,13.3023,4.59942,2453.627,38.4857
2023-09-23T07:18:49,2420,42.8014,5.9826,13.2966,4.59945,2453.627,38.4916
2023-09-23T07:21:49,2420,42.8014,5.9826,13.3116,4.60154,2453.612,38.4965
2023-09-23T07:24:49,2420,42.8014,5.9826,13.3118,4.60582,2453.627,38.5367
2023-09-23T07:27:49,2420,42.8014,5.9826,13.3010,4.60624,2453.604,38.5515
2023-09-23T07:30:49,2420,42.8014,5.9826,13.2976,4.60340,2453.604,38.5279
2023-09-23T07:33:49,2420,42.8014,5.9826,13.2966,4.59990,2453.619,38.4960
2023-09-23T07:36:49,2420,42.8014,5.9826,13.3003,4.59971,2453.612,38.4905
2023-09-23T07:39:49,2420,42.8014,5.9826,13.3000,4.60136,2453.627,38.5063
2023-09-23T07:42:49,2420,42.8014,5.9826,13.2979,4.59966,2453.604,38.4923
2023-09-23T07:45:49,2420,42.8014,5.9826,13.3008,4.59964,2453.627,38.4893
2023-09-23T07:48:49,2420,42.8014,5.9826,13.3095,4.60137,2453.627,38.4969
2023-09-23T07:51:49,2420,42.8014,5.9826,13.3011,4.60314,2453.619,38.5221
2023-09-23T07:54:49,2420,42.8014,5.9826,13.3015,4.60130,2453.627,38.5043
2023-09-23T07:57:49,2420,42.8014,5.9826,13.3000,4.60182,2453.649,38.5106
2023-09-23T08:00:49,2420,42.8014,5.9826,13.3023,4.60034,2453.604,38.4944
2023-09-23T08:03:49,2420,42.8014,5.9826,13.2978,4.60345,2453.604,38.5283
2023-09-23T08:06:49,2420,42.8014,5.9826,13.2989,4.60048,2453.604,38.4991
2023-09-23T08:09:49,2420,42.8014,5.9826,13.2976,4.60204,2453.664,38.5151
2023-09-23T08:12:49,2420,42.8014,5.9826,13.2980,4.60009,2453.627,38.4963
2023-09-23T08:15:49,2420,42.8014,5.9826,13.2970,4.60065,2453.635,38.5025
2023-09-23T08:18:49,2420,42.8014,5.9826,13.2973,4.59943,2453.649,38.4907
2023-09-23T08:21:49,2420,42.8014,5.9826,13.2970,4.59955,2453.612,38.4922
2023-09-23T08:24:49,2420,42.8014,5.9826,13.2975,4.59950,2453.649,38.4913
2023-09-23T08:27:49,2420,42.8014,5.9826,13.2976,4.59912,2453.672,38.4876
2023-09-23T08:30:49,2420,42.8014,5.9826,13.2969,4.59950,2453.649,38.4918
2023-09-23T08:33:49,2420,42.8014,5.9826,13.2970,4.59926,2453.649,38.4895
2023-09-23T08:36:49,2420,42.8014,5.9826,13.2970,4.59906,2453.627,38.4875
2023-09-23T08:39:49,2420,42.8014,5.9826,13.2971,4.59927,2453.649,38.4894
2023-09-23T08:42:49,2420,42.8014,5.9826,13.2973,4.59906,2453.627,38.4872
2023-09-23T08:45:49,2420,42.8014,5.9826,13.2971,4.59902,2453.635,38.4871
2023-09-23T08:48:49,2420,42.8014,5.9826,13.2981,4.59901,2453.664,38.4860
2023-09-23T08:51:49,2420,42.8014,5.9826,13.2970,4.59906,2453.627,38.4876
2023-09-23T08:54:49,2420,42.8014,5.9826,13.2973,4.59909,2453.649,38.4875
2023-09-23T08:57:49,2420,42.8014,5.9826,13.2978,4.59904,2453.649,38.4866
2023-09-23T09:00:49,2420,42.8014,5.9826,13.2972,4.59919,2453.649,38.4886
2023-09-23T09:03:49,2420,42.8014,5.9826,13.2972,4.59906,2453.672,38.4874
2023-09-23T09:06:49,2420,42.8014,5.9826,13.2976,4.59906,2453.672,38.4870
2023-09-23T09:09:49,2420,42.8014,5.9826,13.2981,4.59911,2453.672,38.4869
2023-09-23T09:12:49,2420,42.8014,5.9826,13.2982,4.59919,2453.672,38.4876
2023-09-23T09:15:49,2420,42.8014,5.9826,13.2983,4.59982,2453.664,38.4934
2023-09-23T09:18:49,2420,42.8014,5.9826,13.2991,4.59932,2453.627,38.4879
2023-09-23T09:21:49,2420,42.8014,5.9826,13.2996,4.59983,2453.627,38.4923
2023-09-23T09:24:49,2420,42.8014,5.9826,13.2994,4.59931,2453.664,38.4875
2023-09-23T09:27:49,2420,42.8014,5.9826,13.2986,4.59941,2453.627,38.4893
2023-09-23T09:30:49,2420,42.8014,5.9826,13.2985,4.59926,2453.649,38.4880
2023-09-23T09:33:49,2420,42.8014,5.9826,13.2971,4.59926,2453.649,38.4893
2023-09-23T09:36:49,2420,42.8014,5.9826,13.2973,4.59913,2453.672,38.4879
2023-09-23T09:39:49,2420,42.8014,5.9826,13.2972,4.59908,2453.635,38.4876
2023-09-23T09:42:49,2420,42.8014,5.9826,13.2997,4.59908,2453.672,38.4851
2023-09-23T09:45:49,2420,42.8014,5.9826,13.2973,4.59903,2453.649,38.4871
2023-09-23T09:48:49,2420,42.8014,5.9826,13.2976,4.59903,2453.672,38.4867
2023-09-23T09:51:49,2420,42.8014,5.9826,13.2970,4.59916,2453.695,38.4885
2023-09-23T09:54:49,2420,42.8014,5.9826,13.2976,4.59905,2453.672,38.4869
2023-09-23T09:57:49,2420,42.8014,5.9826,13.2970,4.59903,2453.649,38.4872
2023-09-23T10:00:49,2420,42.8014,5.9826,13.2973,4.59901,2453.695,38.4868
2023-09-23T10:03:49,2420,42.8014,5.9826,13.2974,4.59902,2453.695,38.4868
2023-09-23T10:06:49,2420,42.8014,5.9826,13.2977,4.59905,2453.695,38.4868
2023-09-23T10:09:49,2420,42.8014,5.9826,13.2971,4.59901,2453.649,38.4870
2023-09-23T10:12:49,2420,42.8014,5.9826,13.2970,4.59900,2453.672,38.4869
2023-09-23T10:15:49,2420,42.8014,5.9826,13.2973,4.59898,2453.672,38.4866
2023-09-23T10:18:49,2420,42.8014,5.9826,13.2973,4.59899,2453.695,38.4866
2023-09-23T10:21:49,2420,42.8014,5.9826,13.2973,4.59892,2453.672,38.4859
2023-09-23T10:24:49,2420,42.8014,5.9826,13.2973,4.59901,2453.672,38.4868
2023-09-23T10:27:49,2420,42.8014,5.9826,13.2976,4.59895,2453.672,38.4860
2023-09-23T10:30:49,2420,42.8014,5.9826,13.2972,4.59896,2453.695,38.4864
2023-09-23T10:33:49,2420,42.8014,5.9826,13.2985,4.59901,2453.695,38.4856
2023-09-23T10:36:49,2420,42.8014,5.9826,13.2972,4.59905,2453.657,38.4873
2023-09-23T10:39:49,2420,42.8014,5.9826,13.2972,4.59904,2453.695,38.4872
2023-09-23T10:42:49,2420,42.8014,5.9826,13.2979,4.59902,2453.717,38.4862
2023-09-23T10:45:49,2420,42.8014,5.9826,13.2970,4.59909,2453.695,38.4879
2023-09-23T10:48:49,2420,42.8014,5.9826,13.2972,4.59900,2453.695,38.4869
2023-09-23T10:51:49,2420,42.8014,5.9826,13.2969,4.59900,2453.695,38.4871
2023-09-23T10:54:49,2420,42.8014,5.9826,13.2975,4.59903,2453.740,38.4868
2023-09-23T10:57:49,2420,42.8014,5.9826,13.2970,4.59898,2453.695,38.4868
2023-09-23T11:00:49,2420,42.8014,5.9826,13.2972,4.59904,2453.717,38.4872
2023-09-23T11:03:49,2420,42.8014,5.9826,13.2978,4.59905,2453.672,38.4866
2023-09-23T11:06:49,2420,42.8014,5.9826,13.2976,4.59934,2453.717,38.4896
2023-09-23T11:09:49,2420,42.8014,5.9826,13.2971,4.59911,2453.717,38.4879
2023-09-23T11:12:49,2420,42.8014,5.9826,13.2973,4.59899,2453.695,38.4866
2023-09-23T11:15:49,2420,42.8014,5.9826,13.2966,4.59897,2453.695,38.4871
2023-09-23T11:18:49,2420,42.8014,5.9826,13.2968,4.59897,2453.717,38.4870
2023-09-23T11:21:49,2420,42.8014,5.9826,13.2970,4.59896,2453.717,38.4866
2023-09-23T11:24:49,2420,42.8014,5.9826,13.2970,4.59891,2453.717,38.4861
2023-09-23T11:27:49,2420,42.8014,5.9826,13.2970,4.59890,2453.680,38.4861
2023-09-23T11:30:49,2420,42.8014,5.9826,13.2968,4.59888,2453.717,38.4861
2023-09-23T11:33:50,2420,42.8014,5.9826,13.2971,4.59896,2453.695,38.4865
2023-09-23T11:36:50,2420,42.8014,5.9826,13.2970,4.59893,2453.717,38.4863
2023-09-23T11:39:49,2420,42.8014,5.9826,13.2968,4.59901,2453.717,38.4873
2023-09-23T11:42:49,2420,42.8014,5.9826,13.2969,4.59900,2453.702,38.4871
2023-09-23T11:45:49,2420,42.8014,5.9826,13.2968,4.59895,2453.695,38.4867
2023-09-23T11:48:49,2420,42.8014,5.9826,13.2970,4.59899,2453.695,38.4869
2023-09-23T11:51:49,2420,42.8014,5.9826,13.2973,4.59895,2453.717,38.4863
2023-09-23T11:54:49,2420,42.8014,5.9826,13.2969,4.59889,2453.680,38.4861
2023-09-23T11:57:49,2420,42.8014,5.9826,13.2970,4.59890,2453.717,38.4860
2023-09-23T12:00:49,2420,42.8014,5.9826,13.2968,4.59899,2453.717,38.4870
2023-09-23T12:03:49,2420,42.8014,5.9826,13.2970,4.59891,2453.717,38.4861
2023-09-23T12:06:49,2420,42.8014,5.9826,13.2969,4.59892,2453.695,38.4863
2023-09-23T12:09:49,2420,42.8014,5.9826,13.2970,4.59895,2453.717,38.4865
2023-09-23T12:12:49,2420,42.8014,5.9826,13.2970,4.59892,2453.695,38.4863
2023-09-23T12:15:49,2420,42.8014,5.9826,13.2972,4.59894,2453.717,38.4863
2023-09-23T12:18:49,2420,42.8014,5.9826,13.2973,4.59905,2453.717,38.4872
2023-09-23T12:21:49,2420,42.8014,5.9826,13.2973,4.59916,2453.717,38.4882
2023-09-23T12:24:49,2420,42.8014,5.9826,13.2975,4.59898,2453.702,38.4863
2023-09-23T12:27:49,2420,42.8014,5.9826,13.2973,4.59900,2453.695,38.4866
2023-09-23T12:30:49,2420,42.8014,5.9826,13.2972,4.59892,2453.740,38.4860
2023-09-23T12:33:49,2420,42.8014,5.9826,13.2973,4.59901,2453.702,38.4868
2023-09-23T12:36:49,2420,42.8014,5.9826,13.2975,4.59899,2453.717,38.4864
2023-09-23T12:39:49,2420,42.8014,5.9826,13.2967,4.59899,2453.762,38.4872
2023-09-23T12:42:49,2420,42.8014,5.9826,13.2972,4.59889,2453.762,38.4858
2023-09-23T12:45:49,2420,42.8014,5.9826,13.2973,4.59893,2453.740,38.4860
2023-09-23T12:48:49,2420,42.8014,5.9826,13.2968,4.59889,2453.754,38.4860
2023-09-23T12:51:49,2420,42.8014,5.9826,13.2969,4.59896,2453.717,38.4867
2023-09-23T12:54:49,2420,42.8014,5.9826,13.2970,4.59901,2453.740,38.4871
2023-09-23T12:57:49,2420,42.8014,5.9826,13.2970,4.59896,2453.740,38.4866
2023-09-23T13:00:49,2420,42.8014,5.9826,13.2973,4.59894,2453.717,38.4861
2023-09-23T13:03:49,2420,42.8014,5.9826,13.2973,4.59889,2453.740,38.4856
2023-09-23T13:06:49,2420,42.8014,5.9826,13.2969,4.59899,2453.725,38.4870
2023-09-23T13:09:49,2420,42.8014,5.9826,13.2968,4.59897,2453.762,38.4869
2023-09-23T13:12:49,2420,42.8014,5.9826,13.2970,4.59891,2453.740,38.4861
2023-09-23T13:15:49,2420,42.8014,5.9826,13.2970,4.59902,2453.717,38.4872
2023-09-23T13:18:49,2420,42.8014,5.9826,13.2970,4.59891,2453.725,38.4861
2023-09-23T13:21:49,2420,42.8014,5.9826,13.2969,4.59889,2453.740,38.4860
2023-09-23T13:24:49,2420,42.8014,5.9826,13.2971,4.59887,2453.740,38.4856
2023-09-23T13:27:49,2420,42.8014,5.9826,13.2969,4.59894,2453.740,38.4866
2023-09-23T13:30:49,2420,42.8014,5.9826,13.2966,4.59895,2453.702,38.4870
2023-09-23T13:33:49,2420,42.8014,5.9826,13.2968,4.59894,2453.740,38.4867
2023-09-23T13:36:49,2420,42.8014,5.9826,13.2970,4.59886,2453.717,38.4857
2023-09-23T13:39:49,2420,42.8014,5.9826,13.2973,4.59894,2453.740,38.4861
2023-09-23T13:42:49,2420,42.8014,5.9826,13.2968,4.59888,2453.717,38.4860
2023-09-23T13:45:49,2420,42.8014,5.9826,13.2970,4.59891,2453.740,38.4861
2023-09-23T13:48:49,2420,42.8014,5.9826,13.2970,4.59890,2453.732,38.4861
2023-09-23T13:51:49,2420,42.8014,5.9826,13.2970,4.59889,2453.740,38.4859
2023-09-23T13:54:50,2420,42.8014,5.9826,13.2968,4.59894,2453.717,38.4867
2023-09-23T13:57:49,2420,42.8014,5.9826,13.2970,4.59893,2453.740,38.4864
2023-09-23T14:00:49,2420,42.8014,5.9826,13.2971,4.59887,2453.717,38.4856
2023-09-23T14:03:49,2420,42.8014,5.9826,13.2968,4.59886,2453.740,38.4858
2023-09-23T14:06:49,2420,42.8014,5.9826,13.2969,4.59886,2453.740,38.4857
2023-09-23T14:09:49,2420,42.8014,5.9826,13.2970,4.59884,2453.702,38.4855
2023-09-23T14:12:49,2420,42.8014,5.9826,13.2970,4.59885,2453.695,38.4856
2023-09-23T14:15:49,2420,42.8014,5.9826,13.2966,4.59892,2453.717,38.4865
2023-09-23T14:18:49,2420,42.8014,5.9826,13.2968,4.59889,2453.717,38.4862
2023-09-23T14:21:49,2420,42.8014,5.9826,13.2967,4.59886,2453.695,38.4860
2023-09-23T14:24:49,2420,42.8014,5.9826,13.2968,4.59882,2453.732,38.4854
2023-09-23T14:27:49,2420,42.8014,5.9826,13.2971,4.59886,2453.748,38.4855
2023-09-23T14:30:49,2420,42.8014,5.9826,13.2970,4.59891,2453.740,38.4861
2023-09-23T14:33:49,2420,42.8014,5.9826,13.2973,4.59885,2453.717,38.4853
2023-09-23T14:36:49,2420,42.8014,5.9826,13.2968,4.59886,2453.740,38.4858
2023-09-23T14:39:49,2420,42.8014,5.9826,13.2968,4.59878,2453.717,38.4852
2023-09-23T14:42:49,2420,42.8014,5.9826,13.2970,4.59880,2453.717,38.4851
2023-09-23T14:45:49,2420,42.8014,5.9826,13.2970,4.59880,2453.717,38.4852
2023-09-23T14:48:49,2420,42.8014,5.9826,13.2973,4.59884,2453.740,38.4852
2023-09-23T14:51:49,2420,42.8014,5.9826,13.2970,4.59877,2453.740,38.4848
2023-09-23T14:54:49,2420,42.8014,5.9826,13.2971,4.59880,2453.740,38.4850
2023-09-23T14:57:49,2420,42.8014,5.9826,13.2971,4.59882,2453.732,38.4852
2023-09-23T15:00:49,2420,42.8014,5.9826,13.2970,4.59882,2453.740,38.4852
2023-09-23T15:03:49,2420,42.8014,5.9826,13.2968,4.59878,2453.740,38.4851
2023-09-23T15:06:49,2420,42.8014,5.9826,13.2970,4.59875,2453.717,38.4846
2023-09-23T15:09:49,2420,42.8014,5.9826,13.2970,4.59886,2453.740,38.4856
2023-09-23T15:12:49,2420,42.8014,5.9826,13.2970,4.59879,2453.754,38.4850
2023-09-23T15:15:49,2420,42.8014,5.9826,13.2973,4.59880,2453.740,38.4848
2023-09-23T15:18:49,2420,42.8014,5.9826,13.2970,4.59885,2453.740,38.4855
2023-09-23T15:21:49,2420,42.8014,5.9826,13.2974,4.59881,2453.740,38.4848
2023-09-23T15:24:49,2420,42.8014,5.9826,13.2970,4.59886,2453.740,38.4856
2023-09-23T15:27:49,2420,42.8014,5.9826,13.2968,4.59879,2453.740,38.4851
2023-09-23T15:30:49,2420,42.8014,5.9826,13.2970,4.59885,2453.695,38.4856
2023-09-23T15:33:49,2420,42.8014,5.9826,13.2970,4.59888,2453.717,38.4858
2023-09-23T15:36:49,2420,42.8014,5.9826,13.2975,4.59880,2453.740,38.4846
2023-09-23T15:39:49,2420,42.8014,5.9826,13.2970,4.59885,2453.740,38.4855
2023-09-23T15:42:49,2420,42.8014,5.9826,13.2971,4.59878,2453.702,38.4848
2023-09-23T15:45:49,2420,42.8014,5.9826,13.2970,4.59883,2453.754,38.4854
2023-09-23T15:48:49,2420,42.8014,5.9826,13.2972,4.59879,2453.695,38.4848
2023-09-23T15:51:49,2420,42.8014,5.9826,13.2970,4.59880,2453.740,38.4850
2023-09-23T15:54:49,2420,42.8014,5.9826,13.2968,4.59883,2453.717,38.4856
2023-09-23T15:57:49,2420,42.8014,5.9826,13.2973,4.59885,2453.725,38.4853
2023-09-23T16:00:49,2420,42.8014,5.9826,13.2970,4.59879,2453.725,38.4850
2023-09-23T16:03:49,2420,42.8014,5.9826,13.2968,4.59878,2453.740,38.4851